Regional Weather Roundup
Issued by NWS

Home | Current Version | Previous Version | Graphics & Text | Print | Product List | Glossary On
Versions: 1 2 3 4 5 6 7 8 9 10 11 12 13 14 15 16 17 18 19 20 21 22 23 24 25 26 27 28 29 30 31 32 33 34 35 36 37 38 39 40 41 42 43 44 45 46 47 48 49 50
000
ASUS43 KLSX 021807
RWRMO

WEATHER SUMMARY FOR MISSOURI
NATIONAL WEATHER SERVICE SPRINGFIELD MO
100 PM CDT THU JUL 02 2015

NOTE: "FAIR" INDICATES FEW OR NO CLOUDS BELOW 12,000 FEET WITH NO
       SIGNIFICANT WEATHER AND/OR OBSTRUCTIONS TO VISIBILITY.
       CURRENT SKY AND/OR WEATHER CONDITIONS ARE NOT AVAILABLE FOR
       CHILLICOTHE AND FARMINGTON.

MOZ001>031-035>038-043-044-053-054-021900-
...NORTHERN AND WESTERN MISSOURI...

CITY           SKY/WX    TMP DP  RH WIND       PRES   REMARKS
KANSAS CTY INT CLOUDY    70  67  90 NE9       29.93F
6HR MIN TEMP:  70; 6HR MAX TEMP:  72; 6HR PCP: TRACE;

KANSAS C DTWN  CLOUDY    73  68  84 NE12      29.92F
6HR MIN TEMP:  72; 6HR MAX TEMP:  74; 6HR PCP: TRACE;

LEE`S SUMMIT   CLOUDY    72  67  84 E9        29.94S
6HR MIN TEMP:  70; 6HR MAX TEMP:  72; 6HR PCP: TRACE;

ST JOSEPH      CLOUDY    71  66  84 NE8       29.93F
6HR MIN TEMP:  69; 6HR MAX TEMP:  71;

CHILLICOTHE      N/A     72  65  78 VRB3      29.95F
6HR MIN TEMP:  68; 6HR MAX TEMP:  72;

KIRKSVILLE     PTSUNNY   71  59  65 NE8       29.96F
6HR MIN TEMP:  65; 6HR MAX TEMP:  72; 6HR PCP: TRACE;


$$
MOZ066>068-077>081-088>096-101>105-021900-
...SOUTHWEST MISSOURI...

CITY           SKY/WX    TMP DP  RH WIND       PRES   REMARKS
SPRINGFIELD    PTSUNNY   82  73  74 N8        29.88S
6HR MIN TEMP:  70; 6HR MAX TEMP:  82;

JOPLIN         CLOUDY    85  75  72 N7        29.89R HX  93
6HR MIN TEMP:  76; 6HR MAX TEMP:  85;


$$
MOZ032>034-039>042-045>050-055>058-069>072-021900-
...CENTRAL MISSOURI...

CITY           SKY/WX    TMP DP  RH WIND       PRES   REMARKS
COLUMBIA       PTSUNNY   73  66  78 NE10      29.92F
6HR MIN TEMP:  68; 6HR MAX TEMP:  73;

JEFFERSON CITY CLOUDY    72  66  81 E7        29.91S
6HR MIN TEMP:  71; 6HR MAX TEMP:  73; 6HR PCP: TRACE;

ROLLA          CLOUDY    72  69  90 NE9       29.89S
6HR MIN TEMP:  69; 6HR MAX TEMP:  76;

SEDALIA        CLOUDY    74  68  81 NE8       29.93S
6HR MIN TEMP:  71; 6HR MAX TEMP:  75; 6HR PCP:  0.01;

WHITEMAN AFB   CLOUDY    74  69  85 NE12      29.90F
WARRENSBURG    CLOUDY    72  68  88 N6        29.91F
OSAGE BEACH    CLOUDY    75  68  78 N10       29.90S

$$
MOZ051-052-059>065-021900-
...EAST CENTRAL MISSOURI...

CITY           SKY/WX    TMP DP  RH WIND       PRES   REMARKS
ST LOUIS INTL  NOT AVBL
SPIRIT OF STL  CLOUDY    72  64  76 NE7       29.91S
6HR MIN TEMP:  64; 6HR MAX TEMP:  72; 6HR PCP:  0.01;

ST CHARLES     CLOUDY    73  64  73 N10       29.91F
6HR MIN TEMP:  63; 6HR MAX TEMP:  73;


$$
MOZ072>076-082>087-097>100-106>115-021900-
...SOUTH CENTRAL AND SOUTHEAST MISSOURI...

CITY           SKY/WX    TMP DP  RH WIND       PRES   REMARKS
CAPE GIRARDEAU CLOUDY    81  71  71 W8        29.85F
6HR MIN TEMP:  71; 6HR MAX TEMP:  83;

FARMINGTON     CLOUDY    77  72  83 NE9       29.93S
6HR MIN TEMP:  66; 6HR MAX TEMP:  77;

POPLAR BLUFF   CLOUDY    84  70  62 W7        29.85F
6HR MIN TEMP:  74; 6HR MAX TEMP:  84;

WEST PLAINS    MOSUNNY   81  71  71 W13       29.89F
6HR MIN TEMP:  69; 6HR MAX TEMP:  82; 6HR PCP: TRACE;


$$



USA.gov is the U.S. government's official web portal to all federal, state and local government web resources and services.